Location: Alphen
(52.1351°N, 4.6549°E)
Time: 01:27:50
(UTC+00:00)

Envisat - Pass Details

Date: 27 January 2021
Orbit: 764 x 766 km, 98.1° (Epoch: 27 February)

Event Time Altitude Azimuth Distance (km) Brightness Sun altitude
Rises 04:57:40 0° 19° (NNE) 3,246 6.5 -23.0°
Reaches altitude 10° 05:00:08 10° 27° (NNE) 2,315 5.8 -22.7°
Maximum altitude 05:04:55 40° 97° (E) 1,129 4.4 -21.9°
Drops below altitude 10° 05:09:40 10° 166° (SSE) 2,297 5.7 -21.2°
Sets 05:12:05 0° 174° (S) 3,219 6.4 -20.8°
